Tracking 29528 objects as of 14-Sep-2024
HD Live streaming from Space Station
objects crossing your sky now

SITRO-AIS-10

Track SITRO-AIS-10 now!
10-day predictions
SITRO-AIS-10 is classified as:


NORAD ID: 57199
Int'l Code: 2023-091AK
Perigee: 524.1 km
Apogee: 541.5 km
Inclination: 97.6 °
Period: 95.1 minutes
Semi major axis: 6903 km
RCS: Unknown
Launch date: June 27, 2023
Source: (TBD)
Launch site: VOSTOCHNY COSMODROME (VOSTO)

Uplink (MHz):
Downlink (MHz): 401.290
Beacon (MHz):
Mode: 2k4 GMSK_USP
Call sign: SC2212
Status: Unknown

Your satellite tracking list
Your tracking list is empty




NASA's NSSDC Master Catalog

Two Line Element Set (TLE):
1 57199U 23091AK  24258.16943173  .00036433  00000-0  20295-2 0  9990
2 57199  97.6052 310.9981 0012592 160.8146 199.3562 15.13448179 67009
Source of the keplerian elements: AFSPC